Weather History for CNDT - January, 2014

Change the Weather History Date:

Friday, January 24, 2014

  Actual Average Record
Temperature  
Mean Temperature -31 °F -  
Max Temperature -22 °F - - ()
Min Temperature -40 °F - - ()
Degree Days  
Heating Degree Days 96    
Moisture  
Dew Point -40 °F    
Average Humidity 65    
Maximum Humidity 73    
Minimum Humidity 43    
Precipitation  
Precipitation 0.00 in - - ()
Sea Level Pressure  
Sea Level Pressure 29.56 in    
Wind  
Wind Speed 1 mph ()    
Max Wind Speed 2 mph    
Max Gust Speed -    
T = Trace of Precipitation, MM = Missing Value Source: Averaged Metar Reports

Daily Weather History Graph

Daily Weather History Graph

Search for Another Location

Airport or City:

Trip Planner

Search our weather history database for the weather conditions in past years. The results will help you decide how hot, cold, wet, or windy it might be!

Date:

Astronomy

Jan. 24, 2014 Rise Set
Actual Time 11:51 AM EST 12:56 PM EST
Civil Twilight 9:35 AM EST 3:13 PM EST
Nautical Twilight 7:51 AM EST 4:57 PM EST
Astronomical Twilight 6:27 AM EST 6:22 PM EST
Moon 3:31 AM EST (1/24) 8:48 AM EST (1/24)
Length of Visible Light 5h 38m
Length of Day
1h 04m
Last Quarter, 45% of the Moon is Illuminated
Jan 24
Last Quarter
Jan 30
New
Feb 6
First Quarter
Feb 14
Full
Feb 22
Last Quarter

Hourly Weather History & Observations

Time (EST) Temp. Dew Point Humidity Pressure Visibility Wind Dir Wind Speed Gust Speed Precip Events Conditions
12:00 AM -38.6 °F -46.3 °F 65% 29.57 in - SSW 1.2 mph - N/A   Unknown
1:00 AM -38 °F -46 °F 43% 29.56 in - Calm Calm - -  
1:00 AM -38.2 °F -46.3 °F 64% 29.56 in - Calm Calm - N/A   Unknown
2:00 AM -38.9 °F -46.8 °F 64% 29.57 in - SW 1.2 mph - N/A   Unknown
3:00 AM -37.3 °F -44.9 °F 66% 29.56 in - SW 1.2 mph - N/A   Unknown
4:00 AM -37.7 °F -45.4 °F 65% 29.56 in - SSW 1.2 mph - N/A   Unknown
5:00 AM -36.6 °F -44.1 °F 66% 29.56 in - SW 1.2 mph - N/A   Unknown
6:00 AM -35.9 °F -43.4 °F 66% 29.57 in - SW 1.2 mph - N/A   Unknown
7:00 AM -39 °F -46 °F 47% 29.57 in - SW 1.2 mph - -  
7:00 AM -38.6 °F -46.5 °F 65% 29.57 in - SW 1.2 mph - N/A   Unknown
8:00 AM -39.6 °F -47.7 °F 64% 29.57 in - South 2.3 mph - N/A   Unknown
9:00 AM -37.7 °F -45.4 °F 65% 29.56 in - South 2.3 mph - N/A   Unknown
10:00 AM -35.7 °F -43.2 °F 66% 29.55 in - SW 1.2 mph - N/A   Unknown
11:00 AM -36.6 °F -44.3 °F 65% 29.55 in - SW 1.2 mph - N/A   Unknown
12:00 PM -31.9 °F -39.1 °F 68% 29.55 in - South 2.3 mph - N/A   Unknown
1:00 PM -34 °F -42 °F 48% 29.55 in - WSW 1.2 mph - -  
1:00 PM -34.2 °F -41.6 °F 67% 29.55 in - SW 1.2 mph - N/A   Unknown
2:00 PM -31.4 °F -38.6 °F 68% 29.55 in - SW 1.2 mph - N/A   Unknown
3:00 PM -29.2 °F -36.2 °F 69% 29.56 in - SW 2.3 mph - N/A   Unknown
4:00 PM -27.4 °F -34.1 °F 71% 29.56 in - SW 2.3 mph - N/A   Unknown
5:00 PM -26.9 °F -33.5 °F 71% 29.57 in - SW 2.3 mph - N/A   Unknown
6:00 PM -26.7 °F -33.3 °F 71% 29.56 in - WSW 1.2 mph - N/A   Unknown
7:00 PM -25 °F -32 °F 53% 29.56 in - SW 1.2 mph - -  
7:00 PM -25.2 °F -32.1 °F 70% 29.56 in - WSW 1.2 mph - N/A   Unknown
8:00 PM -22.9 °F -29.0 °F 73% 29.57 in - SW 1.2 mph - N/A   Unknown
9:00 PM -24.5 °F -31.0 °F 72% 29.56 in - WSW 1.2 mph - N/A   Unknown
10:00 PM -24.5 °F -30.8 °F 72% 29.56 in - WSW 1.2 mph - N/A   Unknown
11:00 PM -23.8 °F -30.1 °F 72% 29.56 in - WSW 2.3 mph - N/A   Unknown